Weather History for Moose Jaw, SK

Change the Weather History Date:

Tuesday, August 27, 2013

  Actual Average Record
Temperature  
Mean Temperature 76 °F -  
Max Temperature 92 °F - - ()
Min Temperature 57 °F - - ()
Cooling Degree Days 12    
Growing Degree Days 26 (Base 50)    
Moisture  
Dew Point 47 °F    
Average Humidity 44    
Maximum Humidity 84    
Minimum Humidity 13    
Precipitation  
Precipitation 0.00 in - - ()
Sea Level Pressure  
Sea Level Pressure 29.91 in    
Wind  
Wind Speed 8 mph ()    
Max Wind Speed 23 mph    
Max Gust Speed 30 mph    
T = Trace of Precipitation, MM = Missing Value Source: Averaged Metar Reports

Daily Weather History Graph

Daily Weather History Graph

Search for Another Location

Airport:

Trip Planner

Search our weather history database for the weather conditions in past years. The results will help you decide how hot, cold, wet, or windy it might be!

Date:

Astronomy

Aug. 27, 2013 Rise Set
Actual Time 6:09 AM CST 7:56 PM CST
Civil Twilight 5:35 AM CST 8:30 PM CST
Nautical Twilight 4:52 AM CST 9:13 PM CST
Astronomical Twilight 4:05 AM CST 10:00 PM CST
Moon 11:05 PM CST (8/27) 1:56 PM CST (8/27)
Length of Visible Light 14h 55m
Length of Day
13h 46m
Waning Gibbous, 56% of the Moon is Illuminated
Aug 27
Waning Gibbous
Aug 28
Last Quarter
Sep 5
New
Sep 12
First Quarter
Sep 19
Full

Hourly Weather History & Observations

Time (CST) Temp. Dew Point Humidity Pressure Visibility Wind Dir Wind Speed Gust Speed Precip Events Conditions
12:00 AM 63.3 °F 56.3 °F 78% 29.84 in - NNE 4.6 mph - N/A   Unknown
1:00 AM 61.7 °F 56.7 °F 84% 29.84 in - NNE 5.8 mph - N/A   Unknown
2:00 AM 64.8 °F 58.6 °F 81% 29.89 in - NE 8.1 mph - N/A   Unknown
3:00 AM 74.1 °F 49.5 °F 42% 29.89 in - NE 23.0 mph 29.9 mph N/A   Unknown
4:00 AM 71.4 °F 50.5 °F 48% 29.90 in - NE 15.0 mph - N/A   Unknown
5:00 AM 66.2 °F 53.2 °F 63% 29.91 in - ENE 5.8 mph - N/A   Unknown
6:00 AM 63.7 °F 55.4 °F 74% 29.89 in - North 4.6 mph - N/A   Unknown
7:00 AM 61.2 °F 55.0 °F 80% 29.92 in - NNE 6.9 mph - N/A   Unknown
8:00 AM 70.2 °F 51.1 °F 51% 29.93 in - WNW 5.8 mph - N/A   Unknown
9:00 AM 78.4 °F 46.8 °F 33% 29.94 in - West 9.2 mph - N/A   Unknown
10:00 AM 82.6 °F 40.5 °F 22% 29.94 in - West 16.1 mph - N/A   Unknown
11:00 AM 84.6 °F 41.7 °F 22% 29.95 in - West 10.4 mph - N/A   Unknown
12:00 PM 87.4 °F 39.7 °F 19% 29.94 in - NNE 11.5 mph 18.4 mph N/A   Unknown
1:00 PM 89.2 °F 40.1 °F 18% 29.93 in - NNE 10.4 mph - N/A   Unknown
2:00 PM 89.8 °F 38.1 °F 16% 29.91 in - NNE 12.7 mph 20.7 mph N/A   Unknown
3:00 PM 92.3 °F 36.3 °F 14% 29.90 in - NNE 12.7 mph 19.6 mph N/A   Unknown
4:00 PM 91.9 °F 34.7 °F 13% 29.90 in - NNE 11.5 mph - N/A   Unknown
5:00 PM 91.2 °F 35.4 °F 14% 29.90 in - NNE 9.2 mph - N/A   Unknown
6:00 PM 89.8 °F 35.6 °F 15% 29.90 in - NE 5.8 mph - N/A   Unknown
7:00 PM 83.8 °F 45.9 °F 26% 29.89 in - NNE 2.3 mph - N/A   Unknown
8:00 PM 74.5 °F 54.1 °F 49% 29.90 in - East 3.5 mph - N/A   Unknown
9:00 PM 65.7 °F 51.4 °F 60% 29.91 in - NNE 10.4 mph - N/A   Unknown
10:00 PM 61.5 °F 50.4 °F 67% 29.92 in - NE 6.9 mph - N/A   Unknown
11:00 PM 57.0 °F 48.7 °F 74% 29.93 in - SSE 8.1 mph - N/A   Unknown